When you browse on this site, cookies collect data to enhance your experience and personalize the content and advertising you see.
Visit our Privacy Policy to learn more. By continuing to use the site, you agree to this use of cookies and data.
  • In United Kingdom
  • List of Countries
  • For 7 days
  • Water Temperature
  • Weather Map
  • Weather Widgets
  • user-avatar
    Login

    Hourly Weather Moyomamba

    Today, 16 September, Monday

    Time Temperature Precipitation Wind Pressure Humidity
    00:00 +19°C° 0 mm 1 mps 681 mmHg 77%
    01:00 +19°C° 0 mm 1 mps 681 mmHg 77%
    02:00 +19°C° 0 mm 1 mps 681 mmHg 77%
    03:00 +19°C° 0 mm 1 mps 680 mmHg 78%
    04:00 +19°C° 0 mm 1 mps 680 mmHg 78%
    05:00 +17°C° 0 mm 0 mps 681 mmHg 77%
    06:00 +18°C° 0 mm 0 mps 681 mmHg 75%
    07:00 +19°C° 0 mm 0 mps 682 mmHg 73%
    08:00 +22°C° 0 mm 0 mps 683 mmHg 62%
    09:00 +25°C° 0 mm 0 mps 684 mmHg 52%
    10:00 +31°C° 0 mm 1 mps 685 mmHg 42%
    11:00 +31°C° 0.1 mm 1 mps 684 mmHg 42%
    12:00 +32°C° 0.1 mm 1 mps 683 mmHg 43%
    13:00 +33°C° 0.1 mm 1 mps 682 mmHg 44%
    14:00 +31°C° 0.3 mm 1 mps 681 mmHg 51%
    15:00 +30°C° 0.3 mm 1 mps 680 mmHg 59%
    16:00 +28°C° 0.3 mm 1 mps 680 mmHg 67%
    17:00 +27°C° 0.3 mm 1 mps 680 mmHg 73%
    18:00 +23°C° 0.3 mm 0 mps 680 mmHg 78%
    19:00 +21°C° 0.3 mm 0 mps 680 mmHg 84%
    20:00 +20°C° 0.5 mm 0 mps 680 mmHg 88%
    21:00 +22°C° 0.5 mm 1 mps 680 mmHg 91%
    22:00 +21°C° 0.5 mm 1 mps 681 mmHg 95%
    23:00 +21°C° 0 mm 1 mps 680 mmHg 95%

    Tomorrow, 17 September, Tuesday

    Time Temperature Precipitation Wind Pressure Humidity
    00:00 +20°C° 0 mm 1 mps 680 mmHg 95%
    01:00 +20°C° 0 mm 1 mps 680 mmHg 95%
    02:00 +20°C° 0.1 mm 1 mps 680 mmHg 95%
    03:00 +20°C° 0.1 mm 1 mps 680 mmHg 95%
    04:00 +20°C° 0.1 mm 1 mps 680 mmHg 95%
    05:00 +18°C° 0.2 mm 0 mps 681 mmHg 94%
    06:00 +19°C° 0.2 mm 0 mps 681 mmHg 94%
    07:00 +19°C° 0.2 mm 0 mps 682 mmHg 93%
    08:00 +21°C° 0.4 mm 0 mps 683 mmHg 86%
    09:00 +24°C° 0.4 mm 0 mps 683 mmHg 78%
    10:00 +27°C° 0.4 mm 0 mps 684 mmHg 71%
    11:00 +27°C° 0.8 mm 0 mps 683 mmHg 67%
    12:00 +30°C° 0.8 mm 1 mps 683 mmHg 63%
    13:00 +31°C° 0.8 mm 1 mps 682 mmHg 59%
    14:00 +30°C° 0.2 mm 1 mps 682 mmHg 57%
    15:00 +30°C° 0.2 mm 1 mps 681 mmHg 56%
    16:00 +30°C° 0.2 mm 1 mps 681 mmHg 54%
    17:00 +28°C° 0.1 mm 1 mps 680 mmHg 64%
    18:00 +25°C° 0.1 mm 1 mps 680 mmHg 74%
    19:00 +23°C° 0.1 mm 1 mps 680 mmHg 83%
    20:00 +22°C° 0 mm 1 mps 680 mmHg 84%
    21:00 +22°C° 0 mm 1 mps 680 mmHg 84%
    22:00 +21°C° 0 mm 1 mps 680 mmHg 85%
    23:00 +21°C° 0 mm 1 mps 680 mmHg 85%

    Day after tomorrow, 18 September, Wednesday

    Time Temperature Precipitation Wind Pressure Humidity
    00:00 +21°C° 0 mm 1 mps 680 mmHg 86%
    01:00 +21°C° 0 mm 1 mps 680 mmHg 86%
    02:00 +20°C° 0 mm 1 mps 680 mmHg 87%
    03:00 +20°C° 0 mm 1 mps 679 mmHg 87%
    04:00 +20°C° 0 mm 1 mps 679 mmHg 88%
    05:00 +21°C° 0 mm 1 mps 680 mmHg 86%
    06:00 +21°C° 0 mm 1 mps 680 mmHg 84%
    07:00 +22°C° 0 mm 1 mps 681 mmHg 82%
    08:00 +25°C° 0 mm 1 mps 682 mmHg 69%
    09:00 +29°C° 0 mm 1 mps 682 mmHg 56%
    10:00 +32°C° 0 mm 1 mps 683 mmHg 43%
    11:00 +33°C° 0 mm 1 mps 682 mmHg 39%
    12:00 +34°C° 0 mm 1 mps 682 mmHg 34%
    13:00 +36°C° 0 mm 1 mps 681 mmHg 30%
    14:00 +35°C° 0 mm 1 mps 680 mmHg 33%
    15:00 +34°C° 0 mm 1 mps 679 mmHg 36%
    16:00 +34°C° 0 mm 2 mps 679 mmHg 39%
    17:00 +30°C° 0 mm 1 mps 678 mmHg 50%
    18:00 +28°C° 0 mm 1 mps 678 mmHg 61%
    19:00 +23°C° 0 mm 0 mps 678 mmHg 71%
    20:00 +22°C° 0 mm 0 mps 678 mmHg 74%
    21:00 +24°C° 0 mm 1 mps 678 mmHg 76%
    22:00 +23°C° 0 mm 1 mps 678 mmHg 78%
    23:00 +23°C° 0 mm 1 mps 678 mmHg 80%

    19 September, Thursday

    Time Temperature Precipitation Wind Pressure Humidity
    00:00 +22°C° 0 mm 1 mps 678 mmHg 81%
    01:00 +22°C° 0 mm 1 mps 678 mmHg 83%
    02:00 +22°C° 0 mm 1 mps 678 mmHg 83%
    03:00 +22°C° 0 mm 1 mps 678 mmHg 84%
    04:00 +21°C° 0 mm 1 mps 678 mmHg 84%
    05:00 +20°C° 0 mm 0 mps 679 mmHg 82%
    06:00 +21°C° 0 mm 0 mps 679 mmHg 81%
    07:00 +21°C° 0 mm 0 mps 680 mmHg 79%
    08:00 +24°C° 0 mm 0 mps 681 mmHg 69%
    09:00 +27°C° 0 mm 0 mps 681 mmHg 59%
    10:00 +30°C° 0 mm 0 mps 682 mmHg 49%
    11:00 +33°C° 0.1 mm 1 mps 681 mmHg 45%
    12:00 +34°C° 0.1 mm 1 mps 680 mmHg 41%
    13:00 +35°C° 0.1 mm 1 mps 680 mmHg 38%
    14:00 +34°C° 0.1 mm 1 mps 679 mmHg 41%
    15:00 +33°C° 0.1 mm 1 mps 678 mmHg 44%
    16:00 +32°C° 0.1 mm 1 mps 678 mmHg 47%
    17:00 +30°C° 0.1 mm 1 mps 677 mmHg 57%
    18:00 +27°C° 0.1 mm 1 mps 677 mmHg 67%
    19:00 +23°C° 0.1 mm 0 mps 677 mmHg 77%
    20:00 +22°C° 0 mm 0 mps 678 mmHg 79%
    21:00 +22°C° 0 mm 0 mps 678 mmHg 82%
    22:00 +21°C° 0 mm 0 mps 678 mmHg 84%
    23:00 +23°C° 0.2 mm 1 mps 678 mmHg 87%

    20 September, Friday

    Time Temperature Precipitation Wind Pressure Humidity
    00:00 +22°C° 0.2 mm 1 mps 678 mmHg 90%
    01:00 +21°C° 0.2 mm 1 mps 678 mmHg 93%
    02:00 +21°C° 0.6 mm 1 mps 678 mmHg 94%
    03:00 +21°C° 0.6 mm 1 mps 679 mmHg 95%
    04:00 +21°C° 0.6 mm 1 mps 679 mmHg 97%
    05:00 +19°C° 0.6 mm 0 mps 679 mmHg 96%
    06:00 +20°C° 0.6 mm 0 mps 680 mmHg 95%
    07:00 +20°C° 0.6 mm 0 mps 681 mmHg 95%
    08:00 +21°C° 0.5 mm 0 mps 681 mmHg 93%
    09:00 +22°C° 0.5 mm 0 mps 682 mmHg 92%
    10:00 +23°C° 0.5 mm 0 mps 682 mmHg 90%
    11:00 +25°C° 1.6 mm 0 mps 682 mmHg 83%
    12:00 +26°C° 1.6 mm 0 mps 682 mmHg 77%
    13:00 +28°C° 1.6 mm 0 mps 681 mmHg 70%
    14:00 +26°C° 1.2 mm 0 mps 680 mmHg 76%
    15:00 +25°C° 1.2 mm 0 mps 679 mmHg 82%
    16:00 +24°C° 1.2 mm 0 mps 679 mmHg 87%
    17:00 +23°C° 0.5 mm 0 mps 679 mmHg 90%
    18:00 +21°C° 0.5 mm 0 mps 679 mmHg 93%
    19:00 +20°C° 0.5 mm 0 mps 679 mmHg 95%
    20:00 +20°C° 0.1 mm 0 mps 679 mmHg 94%
    21:00 +22°C° 0.1 mm 1 mps 680 mmHg 93%
    22:00 +21°C° 0.1 mm 1 mps 681 mmHg 92%
    23:00 +19°C° 0.1 mm 0 mps 681 mmHg 92%

    21 September, Saturday

    Time Temperature Precipitation Wind Pressure Humidity
    00:00 +19°C° 0.1 mm 0 mps 680 mmHg 91%
    01:00 +19°C° 0.1 mm 0 mps 680 mmHg 91%
    02:00 +19°C° 0.3 mm 0 mps 680 mmHg 92%
    03:00 +19°C° 0.3 mm 0 mps 680 mmHg 92%
    04:00 +18°C° 0.3 mm 0 mps 680 mmHg 93%
    05:00 +19°C° 0.7 mm 0 mps 681 mmHg 94%
    06:00 +19°C° 0.7 mm 0 mps 682 mmHg 95%
    07:00 +19°C° 0.7 mm 0 mps 682 mmHg 96%
    08:00 +19°C° 1.3 mm 0 mps 683 mmHg 97%
    09:00 +21°C° 1.3 mm 1 mps 683 mmHg 97%
    10:00 +22°C° 1.3 mm 1 mps 684 mmHg 98%
    11:00 +22°C° 1.4 mm 1 mps 683 mmHg 96%
    12:00 +20°C° 1.4 mm 0 mps 683 mmHg 94%
    13:00 +21°C° 1.4 mm 0 mps 683 mmHg 92%
    14:00 +23°C° 1.2 mm 1 mps 682 mmHg 92%
    15:00 +23°C° 1.2 mm 1 mps 681 mmHg 92%
    16:00 +23°C° 1.2 mm 1 mps 680 mmHg 93%
    17:00 +22°C° 0.2 mm 1 mps 681 mmHg 94%
    18:00 +21°C° 0.2 mm 1 mps 681 mmHg 94%
    19:00 +19°C° 0.2 mm 0 mps 681 mmHg 95%
    20:00 +19°C° 0.1 mm 0 mps 682 mmHg 95%
    21:00 +18°C° 0.1 mm 0 mps 682 mmHg 94%
    22:00 +18°C° 0.1 mm 0 mps 682 mmHg 94%
    23:00 +18°C° 0.1 mm 0 mps 682 mmHg 94%
    Show more